TimeEDT,TemperatureF,Dew PointF,Humidity,Sea Level PressureIn,VisibilityMPH,Wind Direction,Wind SpeedMPH,Gust SpeedMPH,PrecipitationIn,Events,Conditions,WindDirDegrees,DateUTC
12:53 AM,79.0,75.0,88,30.17,10.0,Calm,Calm,-,N/A,,Clear,0,2013-07-30 04:53:00
1:53 AM,78.1,75.0,90,30.16,9.0,Calm,Calm,-,N/A,,Scattered Clouds,0,2013-07-30 05:53:00
2:53 AM,78.1,73.9,87,30.16,9.0,Calm,Calm,-,N/A,,Mostly Cloudy,0,2013-07-30 06:53:00
3:53 AM,77.0,73.9,90,30.14,9.0,Calm,Calm,-,N/A,,Mostly Cloudy,0,2013-07-30 07:53:00
4:53 AM,75.9,73.9,94,30.13,7.0,Calm,Calm,-,N/A,,Scattered Clouds,0,2013-07-30 08:53:00
5:53 AM,75.9,73.9,94,30.14,6.0,Calm,Calm,-,N/A,,Scattered Clouds,0,2013-07-30 09:53:00
6:53 AM,75.9,73.9,94,30.16,5.0,Calm,Calm,-,N/A,,Mostly Cloudy,0,2013-07-30 10:53:00
7:53 AM,78.1,75.0,90,30.17,7.0,Calm,Calm,-,N/A,,Mostly Cloudy,0,2013-07-30 11:53:00
8:53 AM,82.0,75.0,79,30.19,10.0,SSW,3.5,-,N/A,,Scattered Clouds,200,2013-07-30 12:53:00
9:53 AM,84.0,73.9,72,30.19,10.0,SSW,4.6,-,N/A,,Scattered Clouds,200,2013-07-30 13:53:00
10:53 AM,88.0,73.9,63,30.19,10.0,NE,3.5,-,N/A,,Scattered Clouds,50,2013-07-30 14:53:00
11:53 AM,89.1,73.0,59,30.19,10.0,Calm,Calm,-,N/A,,Scattered Clouds,0,2013-07-30 15:53:00
12:53 PM,87.1,73.9,65,30.18,10.0,East,9.2,-,N/A,,Mostly Cloudy,80,2013-07-30 16:53:00
1:53 PM,90.0,73.9,59,30.17,10.0,East,9.2,-,N/A,,Mostly Cloudy,90,2013-07-30 17:53:00
2:53 PM,90.0,71.1,54,30.15,10.0,East,10.4,-,N/A,,Scattered Clouds,90,2013-07-30 18:53:00
3:53 PM,89.1,70.0,53,30.14,10.0,East,8.1,-,N/A,,Scattered Clouds,90,2013-07-30 19:53:00
4:53 PM,88.0,73.9,63,30.12,10.0,East,10.4,-,N/A,,Scattered Clouds,80,2013-07-30 20:53:00
5:53 PM,87.1,75.0,67,30.12,10.0,ESE,9.2,-,N/A,,Scattered Clouds,110,2013-07-30 21:53:00
6:53 PM,86.0,73.9,67,30.12,10.0,East,6.9,-,N/A,,Scattered Clouds,100,2013-07-30 22:53:00
7:53 PM,82.9,75.0,77,30.14,10.0,Variable,3.5,-,N/A,,Scattered Clouds,0,2013-07-30 23:53:00
8:53 PM,82.0,75.9,82,30.14,10.0,Calm,Calm,-,N/A,,Mostly Cloudy,0,2013-07-31 00:53:00
9:53 PM,81.0,75.0,82,30.15,10.0,Calm,Calm,-,N/A,,Scattered Clouds,0,2013-07-31 01:53:00
10:53 PM,81.0,75.0,82,30.15,10.0,Calm,Calm,-,N/A,,Scattered Clouds,0,2013-07-31 02:53:00
11:53 PM,80.1,75.0,85,30.16,9.0,Calm,Calm,-,N/A,,Scattered Clouds,0,2013-07-31 03:53:00